EW5526 Weather Reports


Display with metric or nautical units.
time (UTC)temp
F
wind
direction
speed
MPH
gust
MPH
rain 1hr
in
rain 24hr
in
rain mn
in
humidity
%
barometer
mb
20260831223031 75 340 3.0 9.0 0.00 0.00 0.00 83 1019.5
20260831220030 75 313 1.0 4.0 0.00 0.00 0.00 84 1019.7
20260831213030 76 322 3.0 5.0 0.00 0.00 0.00 82 1019.4
20260831210030 76 323 5.0 10.0 0.00 0.00 0.00 80 1018.7
20260831203029 77 319 4.0 10.0 0.00 0.00 0.00 80 1018.2
20260831200030 77 333 3.0 13.0 0.00 0.00 0.00 77 1018.1
20260831190028 78 5 11.0 11.0 0.00 0.00 0.00 73 1017.3
20260831183028 79 5 8.0 12.0 0.00 0.00 0.00 67 1016.9
20260831180027 79 355 10.0 14.0 0.00 0.00 0.00 75 1016.6
20260831173027 80 346 5.0 11.0 0.00 0.00 0.00 72 1016.4
20260831170027 82 317 8.0 10.0 0.00 0.00 0.00 68 1016.7
20260831163027 84 315 4.0 9.0 0.00 0.00 0.00 65 1016.8
20260831160027 86 360 6.0 12.0 0.00 0.00 0.00 62 1017.0
20260831153026 88 9 8.0 12.0 0.00 0.00 0.00 60 1017.3
20260831150025 89 311 6.0 10.0 0.00 0.00 0.00 60 1017.3
20260831143025 90 310 3.0 10.0 0.00 0.00 0.00 61 1017.2
20260831140025 91 5 8.0 10.0 0.00 0.00 0.00 59 1017.2
20260831133024 93 239 3.0 11.0 0.00 0.00 0.00 51 1017.4
20260831130024 97 338 4.0 6.0 0.00 0.00 0.00 40 1017.5
20260831120024 96 180 4.0 5.0 0.00 0.00 0.00 39 1017.9
20260831113024 94 333 1.0 4.0 0.00 0.00 0.00 43 1018.0
20260831110023 93 331 5.0 5.0 0.00 0.00 0.00 46 1018.2
20260831103023 91 344 3.0 8.0 0.00 0.00 0.00 45 1018.4
20260831100023 92 210 2.0 3.0 0.00 0.00 0.00 47 1018.5
20260831090022 88 267 7.0 7.0 0.00 0.00 0.00 59 1018.6
20260831073021 83 292 1.0 3.0 0.00 0.00 0.00 66 1017.9
20260831070021 83 227 2.0 2.0 0.00 0.00 0.00 65 1017.8
20260831063020 81 296 1.0 2.0 0.00 0.00 0.00 67 1017.6
20260831060020 79 286 2.0 2.0 0.00 0.00 0.00 69 1017.3
20260831053020 76 302 2.0 5.0 0.00 0.00 0.00 81 1017.2
20260831050019 78 302 3.0 6.0 0.00 0.00 0.00 69 1016.8
20260831043019 79 287 2.0 4.0 0.00 0.00 0.00 60 1016.6
20260831040019 79 29 4.0 7.0 0.00 0.00 0.00 62 1016.3
20260831033048 78 360 5.0 6.0 0.00 0.00 0.00 72 1016.1
20260831023048 77 342 9.0 10.0 0.00 0.00 0.00 77 1016.4
20260831020017 77 355 5.0 8.0 0.00 0.00 0.00 76 1016.5
20260831010047 78 339 8.0 10.0 0.00 0.00 0.00 76 1017.0
20260831003046 78 342 6.0 9.0 0.00 0.00 0.00 74 1017.5
20260831000046 77 337 2.0 4.0 0.00 0.00 0.00 79 1018.2
20260830233046 77 349 3.0 4.0 0.00 0.00 0.00 81 1018.5
20260830230046 77 256 2.0 3.0 0.00 0.00 0.00 88 1019.0